This is the latest recevied weather packets stored in our database for station/object KF7U. If no packets are shown the sender has not sent any weather packets the latest 1 day(s).
| Time | Temp. | Humidity | Pressure | Rain* | Wind** | Luminosity | Snow |
|---|---|---|---|---|---|---|---|
| 1778038655 | 20.56° C | 31% | 1010.2 hPa | 0 mm | - | 0 W/m² | - |
| 1778038355 | 20.56° C | 31% | 1009.8 hPa | 0 mm | - | 0 W/m² | - |
| 1778038055 | 20.56° C | 30% | 1009.8 hPa | 0 mm | - | 0 W/m² | - |
| 1778037754 | 21.11° C | 30% | 1009.8 hPa | 0 mm | - | 0 W/m² | - |
| 1778037454 | 21.11° C | 30% | 1009.8 hPa | 0 mm | - | 0 W/m² | - |
| 1778037154 | 21.11° C | 30% | 1009.8 hPa | 0 mm | - | 0 W/m² | - |
| 1778036854 | 21.11° C | 30% | 1009.5 hPa | 0 mm | - | 0 W/m² | - |
| 1778036254 | 21.11° C | 29% | 1009.5 hPa | 0 mm | - | 0 W/m² | - |
| 1778035954 | 21.11° C | 29% | 1009.5 hPa | 0 mm | - | 0 W/m² | - |
| 1778035354 | 21.67° C | 29% | 1009.1 hPa | 0 mm | - | 0 W/m² | - |
| 1778035054 | 21.67° C | 29% | 1009.1 hPa | 0 mm | - | 0 W/m² | - |
| 1778034755 | 21.67° C | 28% | 1009.1 hPa | 0 mm | - | 0 W/m² | - |
| 1778034455 | 21.67° C | 29% | 1009.1 hPa | 0 mm | - | 0 W/m² | - |
| 1778033855 | 21.67° C | 29% | 1008.8 hPa | 0 mm | - | 3 W/m² | - |
| 1778033554 | 21.67° C | 29% | 1008.8 hPa | 0 mm | - | 5 W/m² | - |
| 1778033256 | 22.22° C | 28% | 1008.8 hPa | 0 mm | - | 10 W/m² | - |
| 1778032654 | 22.22° C | 29% | 1008.5 hPa | 0 mm | - | 18 W/m² | - |
| 1778032355 | 22.22° C | 28% | 1008.8 hPa | 0 mm | - | 26 W/m² | - |
| 1778032054 | 22.78° C | 29% | 1008.8 hPa | 0 mm | - | 31 W/m² | - |
| 1778031754 | 22.78° C | 29% | 1008.8 hPa | 0 mm | - | 41 W/m² | - |
| 1778031454 | 22.78° C | 28% | 1008.5 hPa | 0 mm | - | 56 W/m² | - |
| 1778030854 | 22.78° C | 28% | 1008.5 hPa | 0 mm | - | 62 W/m² | - |
| 1778030555 | 22.22° C | 29% | 1008.5 hPa | 0 mm | - | 56 W/m² | - |
| 1778030255 | 22.22° C | 29% | 1008.5 hPa | 0 mm | - | 61 W/m² | - |
| 1778029954 | 22.22° C | 28% | 1008.5 hPa | 0 mm | - | 74 W/m² | - |
* Rain latest hour (hover to see other rain measurements)
** Current wind speed in m/s (hover to see current wind gust speed)